Back to catalog

STARLINK-5266

AliveCommunicationsVLEO
NORAD 55290·PAYLOAD·🇺🇸 United States

Launched Jan 19, 2023 from Vandenberg Space Force Base

Loading…

Next Passes (next 24 hours)

TLE

FreshSource: CelesTrak SupGP

Epoch: Sep 14, 2026, 21:24 UTC

1 55290C 23010X   26257.89215278  .00065000  00000+0  54470-2 0  2570
2 55290  69.9995 267.4423 0003824 265.2489 287.4765 14.98297797    14

Track STARLINK-5266 in real time with AllMySat

Download on the App Store